EN

Hourly Weather Kostrzyn

Today, 29 September, Tuesday

Time Temperature Precipitation Wind Pressure Humidity
00:00 +12°C° 0 mm 2 mps 743 mmHg 84%
01:00 +12°C° 0 mm 2 mps 743 mmHg 89%
02:00 +12°C° 0.3 mm 2 mps 743 mmHg 90%
03:00 +12°C° 0.3 mm 2 mps 742 mmHg 90%
04:00 +12°C° 0.3 mm 2 mps 742 mmHg 91%
05:00 +12°C° 0.1 mm 2 mps 742 mmHg 91%
06:00 +13°C° 0.1 mm 1 mps 742 mmHg 91%
07:00 +13°C° 0 mm 2 mps 743 mmHg 89%
08:00 +13°C° 0 mm 2 mps 743 mmHg 86%
09:00 +14°C° 0 mm 2 mps 743 mmHg 83%
10:00 +15°C° 0 mm 2 mps 743 mmHg 79%
11:00 +15°C° 0.1 mm 2 mps 743 mmHg 80%
12:00 +16°C° 0.1 mm 2 mps 743 mmHg 80%
13:00 +15°C° 0 mm 1 mps 743 mmHg 85%
14:00 +15°C° 0.6 mm 1 mps 743 mmHg 86%
15:00 +14°C° 0.6 mm 2 mps 743 mmHg 88%
16:00 +14°C° 0.6 mm 2 mps 743 mmHg 90%
17:00 +14°C° 0.9 mm 2 mps 743 mmHg 91%
18:00 +14°C° 0.9 mm 2 mps 743 mmHg 93%
19:00 +13°C° 0.9 mm 2 mps 744 mmHg 94%
20:00 +13°C° 0.1 mm 2 mps 744 mmHg 93%
21:00 +12°C° 0.1 mm 3 mps 743 mmHg 93%
22:00 +12°C° 0.1 mm 3 mps 743 mmHg 92%
23:00 +12°C° 0 mm 3 mps 743 mmHg 91%

Tomorrow, 30 September, Wednesday

Time Temperature Precipitation Wind Pressure Humidity
00:00 +11°C° 0 mm 4 mps 743 mmHg 91%
01:00 +11°C° 0 mm 4 mps 743 mmHg 90%
02:00 +11°C° 0 mm 4 mps 743 mmHg 89%
03:00 +11°C° 0 mm 4 mps 743 mmHg 89%
04:00 +11°C° 0 mm 4 mps 742 mmHg 88%
05:00 +10°C° 0.3 mm 5 mps 742 mmHg 89%
06:00 +10°C° 0.3 mm 5 mps 742 mmHg 91%
07:00 +10°C° 0.3 mm 5 mps 742 mmHg 92%
08:00 +10°C° 0.2 mm 5 mps 742 mmHg 91%
09:00 +12°C° 0.2 mm 5 mps 742 mmHg 90%
10:00 +12°C° 0.2 mm 5 mps 742 mmHg 89%
11:00 +13°C° 0 mm 5 mps 742 mmHg 87%
12:00 +14°C° 0 mm 5 mps 742 mmHg 84%
13:00 +14°C° 0 mm 5 mps 741 mmHg 82%
14:00 +14°C° 0.5 mm 4 mps 741 mmHg 84%
15:00 +14°C° 0.5 mm 4 mps 741 mmHg 87%
16:00 +14°C° 0.5 mm 4 mps 741 mmHg 89%
17:00 +13°C° 0.5 mm 4 mps 741 mmHg 89%
18:00 +13°C° 0.5 mm 4 mps 741 mmHg 89%
19:00 +13°C° 0.5 mm 4 mps 741 mmHg 89%
20:00 +13°C° 0.4 mm 4 mps 741 mmHg 90%
21:00 +12°C° 0.4 mm 4 mps 741 mmHg 91%
22:00 +12°C° 0.4 mm 4 mps 740 mmHg 93%
23:00 +12°C° 0.3 mm 3 mps 740 mmHg 93%

Day after tomorrow, 1 October, Thursday

Time Temperature Precipitation Wind Pressure Humidity
00:00 +12°C° 0.3 mm 3 mps 740 mmHg 93%
01:00 +12°C° 0.3 mm 3 mps 740 mmHg 93%
02:00 +12°C° 0.1 mm 4 mps 739 mmHg 93%
03:00 +11°C° 0.1 mm 4 mps 739 mmHg 92%
04:00 +11°C° 0.1 mm 4 mps 739 mmHg 91%
05:00 +11°C° 0.2 mm 4 mps 738 mmHg 91%
06:00 +11°C° 0.2 mm 4 mps 738 mmHg 90%
07:00 +11°C° 0.2 mm 4 mps 738 mmHg 89%
08:00 +11°C° 0.1 mm 4 mps 738 mmHg 88%
09:00 +11°C° 0.1 mm 4 mps 738 mmHg 86%
10:00 +11°C° 0.1 mm 4 mps 738 mmHg 85%
11:00 +12°C° 0.1 mm 4 mps 737 mmHg 83%
12:00 +12°C° 0.1 mm 4 mps 737 mmHg 81%
13:00 +13°C° 0.1 mm 4 mps 737 mmHg 80%
14:00 +13°C° 0 mm 4 mps 737 mmHg 83%
15:00 +12°C° 0 mm 3 mps 737 mmHg 85%
16:00 +12°C° 0 mm 3 mps 737 mmHg 88%
17:00 +12°C° 0 mm 3 mps 738 mmHg 90%
18:00 +12°C° 0 mm 3 mps 738 mmHg 92%
19:00 +12°C° 0 mm 2 mps 738 mmHg 94%
20:00 +11°C° 0 mm 3 mps 738 mmHg 94%
21:00 +11°C° 0 mm 3 mps 738 mmHg 94%
22:00 +11°C° 0 mm 3 mps 738 mmHg 95%
23:00 +10°C° 0 mm 3 mps 738 mmHg 95%

2 October, Friday

Time Temperature Precipitation Wind Pressure Humidity
00:00 +10°C° 0 mm 2 mps 738 mmHg 95%
01:00 +9°C° 0 mm 2 mps 738 mmHg 96%
02:00 +9°C° 0 mm 2 mps 738 mmHg 96%
03:00 +9°C° 0 mm 2 mps 739 mmHg 96%
04:00 +9°C° 0 mm 2 mps 739 mmHg 97%
05:00 +9°C° 0 mm 2 mps 739 mmHg 96%
06:00 +10°C° 0 mm 2 mps 739 mmHg 94%
07:00 +10°C° 0 mm 2 mps 739 mmHg 93%
08:00 +11°C° 0 mm 3 mps 739 mmHg 89%
09:00 +13°C° 0 mm 3 mps 739 mmHg 85%
10:00 +14°C° 0 mm 3 mps 739 mmHg 81%
11:00 +14°C° 0 mm 3 mps 739 mmHg 80%
12:00 +15°C° 0 mm 4 mps 739 mmHg 78%
13:00 +15°C° 0 mm 4 mps 740 mmHg 76%
14:00 +15°C° 0.1 mm 4 mps 740 mmHg 77%
15:00 +15°C° 0.1 mm 4 mps 739 mmHg 78%
16:00 +15°C° 0.1 mm 4 mps 739 mmHg 79%
17:00 +14°C° 0 mm 4 mps 740 mmHg 82%
18:00 +13°C° 0 mm 3 mps 740 mmHg 85%
19:00 +12°C° 0 mm 3 mps 740 mmHg 88%
20:00 +12°C° 0 mm 3 mps 740 mmHg 90%
21:00 +11°C° 0 mm 3 mps 740 mmHg 92%
22:00 +11°C° 0 mm 3 mps 740 mmHg 94%
23:00 +11°C° 0 mm 3 mps 740 mmHg 95%

3 October, Saturday

Time Temperature Precipitation Wind Pressure Humidity
00:00 +11°C° 0 mm 4 mps 740 mmHg 95%
01:00 +10°C° 0 mm 4 mps 739 mmHg 95%
02:00 +11°C° 0.2 mm 4 mps 739 mmHg 95%
03:00 +10°C° 0.2 mm 5 mps 739 mmHg 94%
04:00 +12°C° 0.2 mm 5 mps 739 mmHg 94%
05:00 +11°C° 0 mm 6 mps 739 mmHg 92%
06:00 +13°C° 0 mm 6 mps 739 mmHg 91%
07:00 +13°C° 0 mm 6 mps 738 mmHg 90%
08:00 +15°C° 0 mm 7 mps 738 mmHg 83%
09:00 +16°C° 0 mm 8 mps 738 mmHg 77%
10:00 +18°C° 0 mm 8 mps 738 mmHg 71%
11:00 +20°C° 0 mm 8 mps 737 mmHg 66%
12:00 +21°C° 0 mm 8 mps 737 mmHg 62%
13:00 +22°C° 0 mm 8 mps 737 mmHg 57%
14:00 +22°C° 0 mm 7 mps 737 mmHg 59%
15:00 +21°C° 0 mm 6 mps 736 mmHg 61%
16:00 +21°C° 0 mm 5 mps 736 mmHg 63%
17:00 +20°C° 0 mm 5 mps 736 mmHg 63%
18:00 +20°C° 0 mm 6 mps 736 mmHg 63%
19:00 +19°C° 0 mm 6 mps 736 mmHg 63%
20:00 +20°C° 0 mm 6 mps 736 mmHg 63%
21:00 +20°C° 0 mm 6 mps 736 mmHg 62%
22:00 +20°C° 0 mm 6 mps 736 mmHg 62%
23:00 +20°C° 0 mm 6 mps 735 mmHg 61%

4 October, Sunday

Time Temperature Precipitation Wind Pressure Humidity
00:00 +20°C° 0 mm 6 mps 735 mmHg 60%
01:00 +20°C° 0 mm 7 mps 735 mmHg 59%
02:00 +19°C° 0.2 mm 6 mps 734 mmHg 61%
03:00 +19°C° 0.2 mm 6 mps 734 mmHg 64%
04:00 +17°C° 0.2 mm 6 mps 734 mmHg 66%
05:00 +19°C° 0 mm 6 mps 734 mmHg 65%
06:00 +19°C° 0 mm 6 mps 734 mmHg 64%
07:00 +19°C° 0 mm 6 mps 734 mmHg 63%
08:00 +20°C° 0 mm 6 mps 735 mmHg 62%
09:00 +21°C° 0 mm 6 mps 735 mmHg 60%
10:00 +21°C° 0 mm 5 mps 736 mmHg 59%
11:00 +22°C° 0 mm 5 mps 736 mmHg 55%
12:00 +22°C° 0 mm 5 mps 737 mmHg 50%
13:00 +22°C° 0 mm 4 mps 737 mmHg 46%
14:00 +22°C° 0 mm 3 mps 737 mmHg 49%
15:00 +21°C° 0 mm 3 mps 738 mmHg 51%
16:00 +20°C° 0 mm 2 mps 738 mmHg 53%
17:00 +19°C° 0 mm 2 mps 738 mmHg 56%
18:00 +19°C° 0 mm 1 mps 738 mmHg 58%
19:00 +16°C° 0 mm 1 mps 739 mmHg 61%
20:00 +16°C° 0 mm 1 mps 739 mmHg 63%
21:00 +15°C° 0 mm 1 mps 739 mmHg 66%
22:00 +15°C° 0 mm 1 mps 739 mmHg 68%
23:00 +14°C° 0 mm 2 mps 739 mmHg 71%
Show more

We Need Your Consent

Meteoprog and our Service Providers may store and access personal data such as cookies, device identifiers or other similar technologies on your device and process such data to personalise content and ads, as well as provide social media features and to analyse the traffic.

  • Store and/or access information on your device

    Cookies, device identifiers or other information can be stored or accessed on your device for the purposes indicated above.

  • Personalised ads and content, ad and content measurement, audience insights, and products development

    Ads and content can be personalised based on a profile. More data can be added to better personalise ads and content. Ad and content performance can be measured. Insights about the audience who saw the ads and content can be derived. Such data can be used to develop or improve user’s experience, systems and software.

By clicking ‘I Agree’ you will allow the use of indicated cookies, device identifiers, web beacons or other similar technologies. Your settings can be changed in the browser on your device.

For certain purposes, legitimate interests may be relied on, rather than consent. You can read more about this in our Privacy and Cookie Policy.